RH
25 21 19 17 15 13 12 12 16 27 28 24 23 17 15 14 9 9 8 13 8 5 4 3 4 3 5 5 4 5 4 5 7 9 12 16 18 18 20 29 36 42 44 49 57 61 71
19 18 14 14 13 11 11 12 26 32 29 25 25 19 15 16 12 8 10 10 10 8 4 3 3 3 3 5 5 6 5 5 6 9 14 16 19 18 21 31 38 40 44 46 53 55 58
19 18 18 15 11 10 11 14 30 36 30 26 26 22 17 16 15 11 10 16 12 11 9 4 4 4 3 4 5 6 6 5 6 10 15 17 20 19 23 34 38 43 44 47 51 52 56
33 27 20 16 10 10 12 26 36 40 38 30 27 25 19 17 20 12 11 14 18 16 11 6 4 4 4 4 4 7 7 6 7 10 15 17 18 22 28 33 40 45 51 51 50 52 54
31 28 20 12 11 14 15 28 39 44 43 37 28 28 22 18 19 17 14 18 18 20 16 10 6 4 5 4 5 7 7 7 8 11 14 16 19 23 28 37 38 41 41 46 52 49 54
28 20 16 14 19 22 28 42 44 44 39 42 28 28 26 19 17 20 18 16 19 19 13 10 11 6 5 4 5 6 9 9 9 14 15 17 20 24 29 36 36 34 36 44 53 51 53
18 18 21 27 25 36 39 42 45 45 44 41 31 28 28 26 19 18 23 16 15 15 11 13 9 9 6 5 5 9 9 10 11 15 18 18 21 23 29 33 34 34 33 39 54 51 52
16 24 40 40 48 42 44 45 42 40 45 39 34 34 30 26 24 17 17 19 18 15 13 11 10 9 8 6 6 8 9 9 10 14 18 19 21 27 32 34 33 34 31 37 43 48 50
17 36 46 50 56 53 52 50 53 48 46 40 39 36 30 29 25 22 17 20 21 18 14 10 9 10 10 8 7 8 9 9 11 14 19 20 22 26 30 32 30 34 31 32 36 42 48
23 35 41 51 64 58 63 59 60 53 53 48 43 37 31 34 28 26 23 18 20 21 17 11 10 10 10 11 8 7 9 9 12 16 18 19 21 25 27 31 29 33 31 29 32 36 49
26 29 39 55 65 80 62 64 63 58 57 59 49 48 38 33 38 32 28 25 20 20 21 17 12 10 10 9 10 8 9 10 11 18 20 23 20 24 29 31 31 35 32 31 29 31 42
62 55 59 67 78 90 76 80 67 58 65 70 66 58 55 44 40 40 34 28 25 21 21 22 22 17 11 12 11 10 11 11 11 16 20 24 24 24 27 32 34 33 34 29 29 30 32
89 86 87 82 97 98 97 95 98 71 77 75 65 52 54 53 50 47 41 32 28 29 23 20 23 22 22 16 13 15 14 13 12 13 18 20 25 25 26 28 32 32 31 31 27 31 33
94 91 100 91 100 95 100 100 100 89 96 100 63 50 43 36 40 44 46 40 38 32 26 25 20 25 25 24 24 19 20 20 19 18 17 19 21 23 26 27 27 25 28 33 34 30 33
86 82 100 88 90 98 100 100 100 87 99 100 66 43 39 33 33 38 37 40 50 43 37 30 28 22 22 28 27 28 27 27 29 27 24 19 20 21 23 24 29 28 26 25 27 25 26
67 65 76 90 82 91 98 100 100 91 96 70 71 79 45 34 37 52 45 35 48 46 44 39 38 29 29 25 30 32 30 30 31 29 30 30 27 25 23 22 24 24 26 28 28 28 29
98 86 86 92 86 87 96 87 90 100 89 100 71 98 60 43 35 34 33 36 42 54 55 54 40 43 33 35 27 28 36 38 38 33 33 33 28 29 30 28 27 27 26 25 24 26 26
77 82 76 81 79 91 84 97 74 100 98 99 100 100 81 53 38 35 38 40 38 39 42 51 61 46 45 44 38 35 25 37 43 44 48 44 33 30 33 37 33 31 30 30 30 32 31
100 98 77 91 100 86 100 95 87 100 100 81 100 100 98 92 93 59 50 46 42 43 46 64 78 60 62 56 50 46 39 39 35 35 38 47 54 59 49 41 42 42 32 30 31 32 32
100 100 100 88 86 86 76 94 92 87 100 100 100 100 100 100 100 98 74 52 48 44 41 48 59 74 66 89 72 56 52 46 40 44 40 38 32 36 43 52 57 57 58 47 38 33 32
66 68 87 81 72 82 90 86 88 91 95 99 100 100 100 100 100 87 76 40 51 49 44 43 41 40 47 51 58 78 88 68 60 57 47 45 40 41 38 38 36 36 36 42 53 56 44
74 74 62 60 75 65 73 91 90 100 97 79 100 100 100 100 100 85 78 48 50 56 45 48 53 47 45 45 54 56 71 76 66 55 55 50 54 56 52 46 46 51 40 46 44 39 54
97 67 64 86 74 62 66 96 88 89 99 86 90 100 91 100 99 69 64 95 78 66 77 73 62 50 50 43 49 47 46 49 54 53 52 78 86 77 60 54 54 55 45 52 51 55 46
66 88 79 80 98 98 100 100 100 100 100 96 100 91 89 96 88 73 100 100 100 74 98 92 64 66 70 70 46 38 45 54 49 48 54 60 60 54 74 66 80 70 59 47 43 52 48
59 78 89 95 100 78 87 100 100 100 100 100 100 100 97 93 98 100 100 100 100 97 88 94 96 86 65 74 74 75 74 62 49 42 45 49 50 51 55 55 61 79 75 69 51 46 48
68 62 88 90 85 100 100 90 88 100 100 100 100 100 100 100 100 100 100 100 86 100 100 100 100 100 100 100 100 100 100 92 81 88 80 60 53 47 48 51 62 81 65 48 46 44 62
92 84 100 72 87 100 100 100 100 100 100 100 90 98 100 100 100 100 100 100 100 100 100 100 100 100 100 100 100 100 100 100 100 100 100 100 94 86 77 64 62 58 54 54 49 48 49
92 92 83 66 56 67 100 100 100 100 94 100 100 100 89 100 100 100 100 100 100 100 100 100 100 100 100 100 100 99 99 100 100 100 100 100 100 96 89 79 79 81 72 66 59 53 51
88 100 100 66 80 68 56 100 100 100 66 73 93 100 100 100 100 100 100 100 100 100 100 100 100 100 100 100 100 100 100 97 100 99 98 85 88 94 100 99 86 76 81 73 66 60 55
Wind_Speed
53 57 59 62 59 53 49 51 43 50 59 67 73 80 85 78 71 55 48 36 30 17 8 8 10 16 25 32 41 53 63 75 96 109 111 107 103 98 92 86 83 79 76 73 70 69 66
55 59 59 57 55 44 41 41 39 48 58 67 72 78 83 79 73 59 49 40 30 27 10 9 11 16 23 30 35 47 60 74 85 108 112 108 104 99 93 88 84 80 76 72 69 67 66
53 55 55 47 38 35 37 32 39 46 56 66 72 76 83 78 76 66 54 44 32 25 19 6 9 13 24 31 37 44 55 68 85 107 115 109 105 98 92 89 85 82 76 72 68 66 64
46 45 40 35 30 31 28 31 40 45 54 65 69 75 80 82 77 74 60 51 45 30 25 10 10 12 20 30 38 45 52 63 81 104 115 112 106 97 93 88 84 80 75 71 69 65 63
39 37 34 26 27 23 26 32 40 45 53 61 67 74 77 83 79 77 66 57 49 41 32 17 10 13 18 30 37 45 48 58 79 100 112 109 104 97 94 88 83 77 73 72 69 65 61
32 27 21 22 22 25 28 34 39 44 52 58 65 71 75 79 81 77 74 61 55 46 36 25 15 10 19 27 36 46 49 59 75 100 107 104 101 96 95 90 81 75 74 72 70 66 63
23 15 17 21 23 26 31 34 38 43 49 55 62 69 74 79 82 80 76 74 67 57 47 34 23 13 15 26 36 43 52 59 78 100 104 100 98 97 94 90 86 82 79 76 72 67 64
13 12 18 22 24 28 31 35 39 44 48 54 57 64 71 76 78 81 79 80 75 68 56 40 30 19 18 18 28 41 46 55 69 94 105 101 100 97 93 91 87 83 78 75 72 69 65
10 11 17 20 25 29 33 36 39 44 47 52 57 61 65 72 76 78 83 84 77 73 59 48 37 26 19 17 23 33 41 52 65 84 104 102 100 97 94 90 88 84 79 75 73 71 68
9 11 16 20 25 29 31 33 36 42 45 50 54 60 65 68 73 75 77 81 82 76 70 59 50 38 25 18 22 26 33 42 58 81 98 100 99 97 93 89 86 85 80 76 73 73 71
14 13 17 22 26 25 28 30 34 39 42 47 52 56 60 64 68 73 74 76 79 80 74 71 62 50 39 25 17 23 25 36 50 75 94 98 94 96 93 88 84 83 78 76 73 73 74
20 19 21 24 24 24 25 28 32 36 39 45 50 53 57 60 63 66 69 71 73 76 78 76 71 63 51 44 29 20 21 27 43 67 85 96 92 91 92 89 84 83 80 78 76 74 74
17 20 22 23 22 21 24 28 28 33 36 39 44 49 51 55 58 61 63 66 69 69 71 74 77 69 63 52 44 33 21 17 29 51 73 87 92 90 87 86 84 81 82 80 78 74 72
16 17 20 21 21 19 21 25 27 30 32 35 41 44 46 49 51 56 59 61 62 64 63 65 68 71 71 62 53 44 33 21 15 30 54 73 84 87 85 83 83 82 80 80 79 76 75
19 17 17 20 19 19 17 20 19 29 29 32 38 40 40 42 46 48 51 54 55 58 58 61 60 61 63 65 62 52 44 34 21 10 23 45 66 78 82 82 80 80 80 80 78 77 76
23 23 22 22 23 19 18 19 19 26 27 32 37 37 38 40 41 43 47 48 49 50 52 54 55 53 53 55 58 60 56 44 35 23 16 14 32 50 66 70 71 74 75 76 76 76 76
26 24 24 24 27 22 19 21 21 23 26 29 33 30 36 36 39 41 43 45 44 44 46 46 46 47 47 46 45 47 47 48 49 43 30 20 12 18 27 43 54 63 67 70 72 74 76
31 31 29 29 27 26 27 22 25 23 26 27 31 29 33 36 36 42 43 45 43 39 38 39 40 39 40 40 37 35 33 34 35 35 35 33 30 23 10 5 13 22 32 41 49 54 59
32 29 29 26 28 29 28 29 28 25 28 27 26 27 32 32 34 42 42 44 43 39 36 34 33 33 35 34 34 30 27 24 23 22 22 23 23 22 20 17 15 11 4 5 11 18 25
27 23 29 30 30 33 35 32 32 30 28 27 26 28 29 31 35 39 41 44 40 38 36 33 28 27 28 27 28 29 30 23 16 15 14 12 12 10 11 10 7 3 2 1 4 8 10
35 34 37 40 38 35 36 36 40 39 34 32 32 30 37 41 39 41 38 40 39 38 35 37 35 31 28 26 25 23 25 26 25 22 18 9 7 5 7 5 6 9 8 8 11 11 12
43 41 43 44 47 42 39 38 38 37 36 38 35 36 39 42 42 43 43 45 40 38 36 36 35 33 32 32 26 24 25 26 27 28 26 27 28 25 21 16 17 20 17 16 21 20 23
48 48 50 51 50 50 44 40 41 41 41 43 44 40 43 46 51 49 44 43 47 44 40 37 36 38 39 37 33 34 34 33 31 31 34 30 32 35 36 34 29 30 38 29 28 32 31
55 56 55 54 52 51 46 45 48 48 44 47 48 49 48 51 52 50 46 48 50 49 44 42 47 45 43 40 43 44 41 38 39 40 38 38 40 40 42 45 39 41 45 49 46 45 43
60 62 61 58 56 59 56 48 48 47 43 48 53 54 52 55 53 53 51 50 55 55 52 50 48 50 50 48 50 49 47 45 47 51 52 52 51 51 49 51 49 52 53 53 53 55 56
57 55 59 61 63 62 60 60 54 57 57 58 55 50 53 52 53 53 54 57 57 53 50 50 46 46 50 52 49 45 50 54 56 54 60 67 69 68 63 58 54 60 63 64 62 60 62
66 60 56 62 64 68 68 63 61 61 66 67 65 64 60 59 57 56 58 59 61 59 55 55 52 52 53 50 49 53 53 54 55 57 59 64 66 68 74 79 70 73 70 71 72 71 71
75 72 73 68 59 65 69 74 71 68 72 71 69 69 69 68 69 68 69 70 69 69 68 67 67 68 68 70 72 72 70 67 69 72 73 75 79 80 85 86 78 73 75 78 82 82 80
81 82 80 76 83 69 70 73 78 82 74 73 72 73 73 69 69 73 71 68 75 80 77 74 76 75 75 76 76 77 76 74 68 75 80 85 85 87 88 88 91 88 84 88 90 88 87
Wind_Direction
299 303 308 312 318 325 332 336 341 346 353 358 4 4 3 3 6 7 13 12 355 8 54 104 162 199 200 203 200 200 198 196 197 198 199 202 205 206 205 207 207 209 211 214 215 219 222
300 303 310 316 321 329 336 342 348 353 0 4 8 9 9 7 11 13 12 15 10 357 26 90 136 172 191 193 199 197 194 195 195 195 197 199 203 204 204 204 206 209 211 213 215 219 224
304 307 314 324 330 338 341 354 355 358 6 7 12 13 14 12 14 15 21 23 15 5 1 68 119 157 176 184 186 191 191 192 192 194 195 198 201 202 203 203 204 208 211 212 215 219 222
312 317 327 339 343 345 354 3 1 3 10 11 15 16 17 18 19 20 24 28 29 18 9 14 112 142 171 171 178 184 188 190 191 193 194 196 200 200 201 204 203 207 210 214 216 218 222
320 325 336 351 352 9 8 3 8 8 13 14 18 21 20 22 23 26 30 33 32 28 17 19 56 127 157 168 173 176 183 188 190 192 194 195 197 199 201 202 204 206 210 214 217 220 221
325 338 357 7 20 17 15 8 14 13 16 17 21 23 23 24 27 30 33 36 36 31 29 32 32 96 139 163 168 171 175 185 190 191 194 195 196 199 202 202 203 205 210 214 217 220 222
345 12 26 26 25 16 12 11 15 18 18 18 21 24 26 28 29 32 35 38 40 37 36 35 40 68 120 153 165 171 171 183 187 190 193 194 197 200 203 204 203 206 210 214 216 220 222
17 41 48 35 22 14 15 14 15 17 20 19 23 25 27 29 29 31 36 39 41 40 40 41 45 60 96 136 157 168 175 178 187 190 192 194 197 200 203 206 205 207 211 214 217 221 223
29 59 43 33 20 15 12 14 17 18 21 22 22 23 26 29 30 32 36 40 41 45 46 44 49 57 83 112 146 166 172 176 183 189 192 194 198 200 203 206 207 209 211 214 218 223 225
36 43 28 22 16 12 12 14 17 19 23 22 22 22 23 27 30 32 37 39 43 44 47 50 53 61 63 96 130 154 166 180 180 187 192 196 199 201 205 208 210 211 214 218 218 223 227
10 16 11 9 11 11 13 16 16 18 22 22 20 22 22 25 29 30 35 40 42 45 46 50 54 62 67 73 109 138 159 174 181 187 192 196 201 203 205 209 213 214 216 219 221 225 228
2 4 3 4 7 10 13 16 18 15 19 20 20 21 23 23 28 30 31 37 42 44 47 50 52 55 64 66 70 106 140 168 181 187 193 198 202 205 208 211 214 217 219 221 224 227 231
345 348 353 4 6 9 10 12 18 14 13 18 17 15 21 21 24 28 29 34 39 41 45 49 54 55 57 63 71 72 91 137 183 191 193 199 203 207 211 213 217 220 222 225 228 231 233
335 344 346 355 360 1 7 5 8 12 8 7 7 12 12 15 21 22 25 27 34 36 41 48 52 57 58 58 61 72 79 88 157 193 201 202 206 210 213 217 221 224 227 230 232 234 237
314 325 336 332 346 350 358 1 358 358 358 355 356 1 1 7 12 20 21 26 31 34 37 42 46 52 59 60 59 61 68 80 92 131 202 213 213 215 218 221 224 228 232 235 238 242 244
302 307 312 318 323 331 332 346 345 345 345 346 351 356 358 3 12 20 21 25 30 33 36 37 40 46 52 59 64 65 65 67 71 92 129 186 219 226 226 230 235 237 240 242 244 246 249
309 313 314 319 321 319 315 322 339 340 344 335 344 346 351 359 4 11 15 15 21 26 29 33 39 43 46 52 60 67 68 68 67 69 75 85 135 193 219 233 239 242 243 247 251 253 255
302 300 300 309 311 314 313 313 322 322 327 335 333 336 339 345 351 352 357 1 6 11 17 27 30 35 41 45 51 59 66 70 72 73 69 70 70 69 78 168 219 233 243 249 251 254 256
295 292 296 301 300 307 308 311 317 315 315 328 324 326 325 343 344 343 347 350 352 359 8 14 21 20 27 29 33 41 53 59 57 61 74 79 79 76 73 75 76 58 24 288 271 267 268
287 286 291 294 300 297 303 302 305 307 310 313 311 310 316 324 326 331 333 341 341 349 355 358 5 10 15 18 16 17 23 29 39 45 45 41 53 99 107 116 116 39 122 235 272 271 272
288 288 299 306 309 306 301 296 301 302 299 302 304 296 299 306 307 312 314 328 331 335 341 343 347 349 351 355 359 360 354 357 358 356 357 1 353 355 334 308 284 271 271 251 235 252 244
289 293 298 303 306 304 306 303 303 298 286 287 287 292 293 298 300 301 303 316 323 320 324 332 333 330 330 332 330 331 333 332 334 334 333 328 327 324 312 310 296 288 283 278 281 270 259
285 289 293 295 300 308 309 298 295 296 288 287 287 278 283 286 291 296 306 309 311 313 309 314 317 317 315 323 322 321 320 319 317 318 317 309 309 309 308 307 303 290 301 291 275 279 280
290 291 293 294 297 299 299 293 283 283 287 283 283 286 283 280 286 293 293 293 299 303 302 302 307 308 308 306 312 314 313 311 310 310 308 305 304 302 293 296 291 289 294 297 296 294 288
281 287 288 289 294 294 294 287 282 280 283 279 275 280 289 287 284 287 289 291 295 297 295 297 301 304 305 301 302 304 301 299 303 306 304 302 299 299 295 294 292 284 286 288 292 293 291
276 276 277 286 288 287 288 288 286 281 281 278 273 278 282 281 281 278 278 281 287 288 292 295 294 295 296 298 296 292 294 299 299 296 298 301 301 301 297 295 288 282 284 289 292 292 283
280 277 276 285 288 282 280 278 279 282 280 277 274 273 273 276 275 276 279 279 281 281 282 282 285 288 289 287 288 291 291 289 288 290 288 289 290 291 295 298 296 289 290 291 292 290 289
278 276 280 281 290 282 273 276 275 277 282 271 268 269 270 272 277 277 280 281 282 283 284 285 286 285 285 285 287 287 287 289 290 289 285 285 287 287 290 290 285 280 283 285 290 292 289
278 276 275 275 281 281 283 278 275 275 274 273 273 275 271 268 273 274 275 279 281 281 282 281 282 282 284 284 284 284 284 283 288 287 287 284 283 282 282 281 282 283 278 283 286 286 288